sat.trackr.live / text

‹ back to catalog

STARLINK-5249

NORAD 54205 · 2022-141BA

PAYLOAD ACTIVE UNKNOWN

§ Identity

Operator
Country
US
Launch date
2022-10-28
Launch site
AFWTR
Launch vehicle
Mass (kg)
RCS (m²)

Purposes: comms

External: N2YO · Heavens-Above · Gunter

§ Orbital elements

Epoch: 2026-09-20T06:35:24.493920Z

Period
94.01 min
Inclination
53.1602°
Eccentricity
0.0001384
Mean motion
15.31707627 rev/d
Perigee alt
469.8 km
Apogee alt
471.7 km
Semi-major
6,848.9 km
B*
3.5497e-5
RAAN
190.8198°
Arg perigee
92.8046°
Mean anomaly
267.3114°
Rev number
21,549

§ Raw data

STARLINK-52491 54205U 22141BA  26263.27458905  .00000737  00000+0  35497-4 0  99932 54205  53.1602 190.8198 0001384  92.8046 267.3114 15.31707627215490

JSON: /api/v1/satellites/54205 · /tle

For live sub-satellite position, see the globe view (requires WebGL).

§ Visibility from observer

Set your observer location to see the next 7 days of passes ≥ 10°. The values pass through the URL so the page stays shareable.

No JS? Fill the form by hand. The geolocation button needs JavaScript.